EW0608 Weather Reports


time (UTC)temp
C
wind
direction
speed
KPH
gust
KPH
rain 1hr
cm
rain 24hr
cm
rain mn
cm
humidity
%
barometer
mb
20260906231837 20 42 526.3 526.3 0.00 0.00 0.00 79 1015.3
20260906231550 20 42 0.0 0.0 0.00 0.00 0.00 78 1014.6
20260906231350 21 42 0.0 0.0 0.00 0.00 0.00 78 1015.6
20260906230902 21 42 0.0 0.0 0.00 0.00 0.00 77 1015.6
20260906230355 21 42 0.0 0.0 0.00 0.00 0.00 75 1015.5
20260906230145 21 42 0.0 0.0 0.00 0.00 0.00 75 1014.4
20260906225843 21 42 0.0 0.0 0.00 0.00 0.00 74 1015.4
20260906225337 21 42 0.0 0.0 0.00 0.00 0.00 74 1015.4
20260906224851 21 42 0.0 0.0 0.00 0.00 0.00 73 1015.3
20260906224543 21 42 0.0 0.0 0.00 0.00 0.00 73 1014.2
20260906223848 22 42 0.0 0.0 0.00 0.00 0.00 73 1015.2
20260906223339 22 42 0.0 0.0 0.00 0.00 0.00 73 1015.2
20260906223054 22 42 0.0 0.0 0.00 0.00 0.00 72 1014.1
20260906222852 22 42 0.0 0.0 0.00 0.00 0.00 71 1015.2
20260906222345 22 42 0.0 0.0 0.00 0.00 0.00 70 1015.1
20260906221837 22 42 0.0 0.0 0.00 0.00 0.00 69 1015.1
20260906221552 22 42 0.0 0.0 0.00 0.00 0.00 68 1014.1
20260906221351 23 42 0.0 3.2 0.00 0.00 0.00 70 1015.1
20260906220342 23 355 0.0 0.0 0.00 0.00 0.00 69 1015.1
20260906220053 23 355 0.0 0.0 0.00 0.00 0.00 71 1014.1
20260906215851 23 355 0.0 0.0 0.00 0.00 0.00 70 1015.0
20260906215343 23 355 0.0 4.8 0.00 0.00 0.00 71 1014.9
20260906214856 23 330 0.0 3.2 0.00 0.00 0.00 69 1014.9
20260906214526 22 329 0.0 0.0 0.00 0.00 0.00 68 1013.8
20260906213850 23 329 0.0 0.0 0.00 0.00 0.00 66 1014.8
20260906213344 23 329 0.0 0.0 0.00 0.00 0.00 64 1014.7
20260906213037 23 329 0.0 0.0 0.00 0.00 0.00 65 1013.7
20260906212837 23 329 0.0 1.6 0.00 0.00 0.00 64 1014.8
20260906212351 24 329 0.0 3.2 0.00 0.00 0.00 63 1014.8
20260906211844 24 329 1.6 3.2 0.00 0.00 0.00 64 1014.8
20260906211536 24 250 0.0 4.8 0.00 0.00 0.00 65 1013.8
20260906211336 24 147 0.0 4.8 0.00 0.00 0.00 63 1014.8
20260906210850 24 66 0.0 0.0 0.00 0.00 0.00 65 1014.8
20260906210344 24 66 0.0 3.2 0.00 0.00 0.00 64 1014.8
20260906210013 25 66 0.0 3.2 0.00 0.00 0.00 61 1013.8
20260906205912 25 66 0.0 3.2 0.00 0.00 0.00 60 1014.8
20260906205344 25 71 0.0 3.2 0.00 0.00 0.00 62 1014.7
20260906204856 25 249 0.0 3.2 0.00 0.00 0.00 65 1014.8
20260906204550 24 249 0.0 3.2 0.00 0.00 0.00 61 1013.7
20260906204349 25 249 1.6 3.2 0.00 0.00 0.00 54 1014.7
20260906203842 25 43 0.0 3.2 0.00 0.00 0.00 52 1014.8
20260906203354 25 333 1.6 3.2 0.00 0.00 0.00 53 1014.8
20260906203047 25 90 0.0 0.0 0.00 0.00 0.00 58 1013.8
20260906202847 25 90 0.0 0.0 0.00 0.00 0.00 56 1014.8
20260906202339 25 90 0.0 3.2 0.00 0.00 0.00 59 1014.8
20260906201851 25 90 0.0 3.2 0.00 0.00 0.00 50 1014.8
20260906201525 25 355 0.0 3.2 0.00 0.00 0.00 55 1013.9
20260906201425 25 355 1.6 3.2 0.00 0.00 0.00 49 1014.9
20260906200853 26 16 0.0 4.8 0.00 0.00 0.00 53 1014.8
20260906200039 25 20 0.0 4.8 0.00 0.00 0.00 49 1013.8
20260906195839 26 78 1.6 4.8 0.00 0.00 0.00 47 1014.8
20260906195351 25 286 0.0 3.2 0.00 0.00 0.00 52 1014.8
20260906194845 25 286 0.0 3.2 0.00 0.00 0.00 53 1014.8
20260906194538 25 123 0.0 3.2 0.00 0.00 0.00 57 1013.9
20260906194337 25 123 0.0 3.2 0.00 0.00 0.00 57 1014.9
20260906193851 25 123 0.0 3.2 0.00 0.00 0.00 53 1015.0
20260906193343 25 309 0.0 6.4 0.00 0.00 0.00 57 1015.0
20260906193059 25 68 0.0 6.4 0.00 0.00 0.00 52 1014.1
20260906192856 25 68 1.6 6.4 0.00 0.00 0.00 51 1015.0
20260906192349 25 44 1.6 4.8 0.00 0.00 0.00 53 1014.9
20260906191841 25 46 0.0 3.2 0.00 0.00 0.00 58 1015.0
20260906191553 25 46 0.0 4.8 0.00 0.00 0.00 52 1014.1
20260906191353 25 46 1.6 4.8 0.00 0.00 0.00 53 1015.0
20260906190905 25 5 3.2 4.8 0.00 0.00 0.00 59 1015.0
20260906190357 26 37 1.6 4.8 0.00 0.00 0.00 53 1015.0
20260906190045 26 109 0.0 4.8 0.00 0.00 0.00 55 1014.1
20260906185845 26 96 0.0 4.8 0.00 0.00 0.00 55 1015.0
20260906185437 26 71 0.0 4.8 0.00 0.00 0.00 51 1015.1
20260906184846 27 19 1.6 4.8 0.00 0.00 0.00 57 1015.2
20260906184540 26 123 0.0 4.8 0.00 0.00 0.00 57 1014.2
20260906184339 26 248 0.0 4.8 0.00 0.00 0.00 60 1015.2
20260906183852 26 355 1.6 3.2 0.00 0.00 0.00 63 1015.4
20260906183344 26 94 0.0 4.8 0.00 0.00 0.00 58 1015.3
20260906183043 26 94 0.0 4.8 0.00 0.00 0.00 59 1014.4
20260906182837 26 20 1.6 6.4 0.00 0.00 0.00 56 1015.3
20260906182411 26 290 1.6 6.4 0.00 0.00 0.00 54 1015.4
20260906181842 26 255 3.2 4.8 0.00 0.00 0.00 57 1015.3
20260906181555 26 87 0.0 4.8 0.00 0.00 0.00 57 1014.4
20260906181355 26 282 0.0 4.8 0.00 0.00 0.00 59 1015.4
20260906180847 26 223 1.6 6.4 0.00 0.00 0.00 56 1015.4
20260906180340 26 130 0.0 6.4 0.00 0.00 0.00 58 1015.5
20260906180050 26 132 0.0 6.4 0.00 0.00 0.00 57 1014.5
20260906175849 26 211 0.0 6.4 0.00 0.00 0.00 59 1015.5
20260906175341 26 55 0.0 4.8 0.00 0.00 0.00 62 1015.4
20260906174855 26 11 1.6 4.8 0.00 0.00 0.00 58 1015.5
20260906174550 27 113 0.0 4.8 0.00 0.00 0.00 61 1014.5
20260906174347 27 172 0.0 4.8 0.00 0.00 0.00 64 1015.5
20260906173844 26 310 0.0 3.2 0.00 0.00 0.00 63 1015.4
20260906173356 25 310 1.6 8.0 0.00 0.00 0.00 65 1015.4
20260906173057 25 225 0.0 8.0 0.00 0.00 0.00 68 1014.5
20260906172849 25 225 1.6 8.0 0.00 0.00 0.00 73 1015.5
20260906172457 23 49 0.0 3.2 0.00 0.00 0.00 73 1015.5
20260906171843 23 49 0.0 0.0 0.00 0.00 0.00 76 1015.6
20260906171543 22 49 0.0 0.0 0.00 0.00 0.00 74 1014.6
20260906171339 23 49 0.0 0.0 0.00 0.00 0.00 73 1015.6
20260906170852 23 49 0.0 3.2 0.00 0.00 0.00 68 1015.6
20260906170407 24 49 526.3 526.3 0.00 0.00 0.00 66 1015.4
20260906170057 24 49 1.6 11.3 0.00 0.00 0.00 65 1014.7
20260906165855 25 88 0.0 8.0 0.00 0.00 0.00 63 1015.6
20260906165406 25 234 1.6 8.0 0.00 0.00 0.00 67 1015.6
20260906164913 24 218 3.2 6.4 0.00 0.00 0.00 66 1015.7
20260906164549 24 218 0.0 6.4 0.00 0.00 0.00 66 1014.8
20260906164348 25 218 0.0 6.4 0.00 0.00 0.00 69 1015.8
20260906163841 24 222 3.2 6.4 0.00 0.00 0.00 66 1015.8
20260906163415 24 259 1.6 6.4 0.00 0.00 0.00 70 1015.8
20260906163046 23 74 1.6 8.0 0.00 0.00 0.00 69 1014.9
20260906162846 23 35 1.6 8.0 0.00 0.00 0.00 69 1015.9
20260906162339 23 35 1.6 8.0 0.00 0.00 0.00 71 1015.9
20260906161853 23 61 1.6 6.4 0.00 0.00 0.00 67 1015.9
20260906161506 23 229 1.6 6.4 0.00 0.00 0.00 69 1015.0
20260906161406 23 229 1.6 6.4 0.00 0.00 0.00 69 1016.0
20260906160838 23 242 1.6 8.0 0.00 0.00 0.00 68 1016.1
20260906160351 23 65 3.2 4.8 0.00 0.00 0.00 69 1016.2
20260906160041 23 288 1.6 4.8 0.00 0.00 0.00 70 1015.2
20260906155841 23 201 1.6 4.8 0.00 0.00 0.00 69 1016.1
20260906155354 23 148 1.6 6.4 0.00 0.00 0.00 70 1016.2
20260906154846 23 202 1.6 6.4 0.00 0.00 0.00 69 1016.2
20260906154540 22 36 0.0 0.0 0.00 0.00 0.00 71 1015.2
20260906154339 23 284 0.0 0.0 0.00 0.00 0.00 73 1016.2
20260906153916 22 254 0.0 0.0 0.00 0.00 0.00 70 1016.2
20260906153346 22 54 0.0 0.0 0.00 0.00 0.00 71 1016.2
20260906153039 22 89 0.0 0.0 0.00 0.00 0.00 77 1015.2
20260906152838 22 175 526.3 526.3 0.00 0.00 0.00 77 1016.0
20260906152352 22 175 0.0 0.0 0.00 0.00 0.00 76 1016.2
20260906151846 22 197 0.0 0.0 0.00 0.00 0.00 75 1016.2
20260906151602 22 173 0.0 0.0 0.00 0.00 0.00 76 1015.2
20260906151359 22 346 0.0 0.0 0.00 0.00 0.00 78 1016.1
20260906150852 21 63 0.0 0.0 0.00 0.00 0.00 78 1016.2
20260906150407 21 62 0.0 0.0 0.00 0.00 0.00 79 1016.2
20260906150056 21 107 0.0 0.0 0.00 0.00 0.00 79 1015.2
20260906145854 21 107 0.0 0.0 0.00 0.00 0.00 79 1016.2
20260906145347 21 229 0.0 0.0 0.00 0.00 0.00 80 1016.2
20260906144840 21 229 0.0 0.0 0.00 0.00 0.00 80 1016.2
20260906144519 21 98 0.0 0.0 0.00 0.00 0.00 84 1015.2
20260906144415 21 98 0.0 0.0 0.00 0.00 0.00 84 1016.2
20260906143043 20 43 0.0 0.0 0.00 0.00 0.00 84 1015.2
20260906141540 20 71 0.0 0.0 0.00 0.00 0.00 87 1015.2
20260906140044 18 323 0.0 0.0 0.00 0.00 0.00 88 1015.2
20260906134538 18 88 0.0 0.0 0.00 0.00 0.00 90 1015.1
20260906133043 17 72 0.0 0.0 0.00 0.00 0.00 93 1015.2
20260906131538 16 85 0.0 1.6 0.00 0.00 0.00 94 1015.3
20260906130038 16 97 0.0 0.0 0.00 0.00 0.00 94 1015.3
20260906124538 16 97 0.0 0.0 0.00 0.00 0.00 94 1015.2
20260906123037 16 97 0.0 0.0 0.00 0.00 0.00 94 1015.0
20260906121533 16 97 0.0 0.0 0.00 0.00 0.00 94 1014.8
20260906120029 16 97 0.0 0.0 0.00 0.00 0.00 93 1014.6
20260906114527 16 97 0.0 0.0 0.00 0.00 0.00 93 1014.4
20260906113026 16 97 0.0 0.0 0.00 0.00 0.00 93 1014.1
20260906111523 16 97 0.0 0.0 0.00 0.00 0.00 94 1013.9
20260906110025 16 97 0.0 0.0 0.00 0.00 0.00 94 1013.8
20260906104521 16 97 0.0 0.0 0.00 0.00 0.00 93 1013.7
20260906103039 17 97 0.0 0.0 0.00 0.00 0.00 93 1013.4
20260906101518 17 97 0.0 0.0 0.00 0.00 0.00 93 1013.4
20260906100025 17 97 0.0 0.0 0.00 0.00 0.00 93 1013.3
20260906094513 17 97 0.0 0.0 0.00 0.00 0.00 93 1013.2
20260906093012 17 97 0.0 0.0 0.00 0.00 0.00 93 1013.2
20260906091510 17 97 0.0 0.0 0.00 0.00 0.00 93 1013.1
20260906090008 17 97 0.0 0.0 0.00 0.00 0.00 93 1012.9
20260906084506 17 97 0.0 0.0 0.00 0.00 0.00 93 1012.8
20260906083004 18 97 0.0 0.0 0.00 0.00 0.00 93 1012.6
20260906081502 18 97 0.0 0.0 0.00 0.00 0.00 93 1012.6
20260906074559 18 97 0.0 0.0 0.00 0.00 0.00 93 1012.6
20260906073100 18 97 0.0 0.0 0.00 0.00 0.00 93 1012.5
20260906071557 18 97 0.0 0.0 0.00 0.00 0.00 93 1012.3
20260906070056 18 97 0.0 0.0 0.00 0.00 0.00 93 1012.2
20260906064557 18 97 0.0 0.0 0.00 0.00 0.00 93 1012.4
20260906063053 18 97 0.0 0.0 0.00 0.00 0.00 93 1012.3
20260906061556 19 97 0.0 0.0 0.00 0.00 0.00 93 1012.4
20260906060343 19 97 0.0 0.0 0.00 0.00 0.00 93 1013.3
20260906060100 19 97 0.0 0.0 0.00 0.00 0.00 93 1012.2
20260906055855 20 97 0.0 0.0 0.00 0.00 0.00 93 1013.1
20260906055348 20 97 0.0 0.0 0.00 0.00 0.00 93 1013.1
20260906054840 20 97 0.0 0.0 0.00 0.00 0.00 93 1013.1
20260906054553 19 97 0.0 0.0 0.00 0.00 0.00 93 1012.0
20260906054353 20 97 0.0 0.0 0.00 0.00 0.00 93 1013.1
20260906053845 20 97 0.0 0.0 0.00 0.00 0.00 93 1013.1
20260906053037 20 97 0.0 0.0 0.00 0.00 0.00 93 1012.1
20260906052835 20 97 0.0 0.0 0.00 0.00 0.00 93 1013.1
20260906052347 20 97 0.0 0.0 0.00 0.00 0.00 93 1013.2
20260906051841 20 97 0.0 0.0 0.00 0.00 0.00 93 1013.1
20260906051531 20 97 0.0 0.0 0.00 0.00 0.00 93 1012.1
20260906050909 20 97 0.0 0.0 0.00 0.00 0.00 93 1013.2
20260906050341 20 97 0.0 0.0 0.00 0.00 0.00 93 1013.2
20260906050051 20 97 0.0 0.0 0.00 0.00 0.00 93 1012.2
20260906045850 20 97 0.0 0.0 0.00 0.00 0.00 93 1013.2
20260906045404 20 97 0.0 0.0 0.00 0.00 0.00 93 1013.2
20260906044836 20 97 0.0 0.0 0.00 0.00 0.00 93 1013.1
20260906044510 20 97 0.0 0.0 0.00 0.00 0.00 93 1012.1
20260906044409 21 97 0.0 0.0 0.00 0.00 0.00 93 1013.2
20260906043840 21 97 0.0 0.0 0.00 0.00 0.00 93 1013.3
20260906043337 21 97 0.0 0.0 0.00 0.00 0.00 93 1013.3
20260906043050 20 97 0.0 0.0 0.00 0.00 0.00 93 1012.2
20260906042849 21 97 0.0 0.0 0.00 0.00 0.00 93 1013.2
20260906042343 21 97 0.0 0.0 0.00 0.00 0.00 93 1013.2
20260906041856 21 97 0.0 0.0 0.00 0.00 0.00 93 1013.2
20260906041549 21 97 0.0 0.0 0.00 0.00 0.00 93 1012.2
20260906041348 21 97 0.0 0.0 0.00 0.00 0.00 93 1013.2
20260906040048 21 97 0.0 0.0 0.00 0.00 0.00 93 1012.4
20260906035848 21 97 0.0 0.0 0.00 0.00 0.00 93 1013.5
20260906034844 21 97 0.0 0.0 0.00 0.00 0.00 93 1013.1
20260906034602 21 97 0.0 0.0 0.00 0.00 0.00 93 1012.4
20260906034354 21 97 0.0 0.0 0.00 0.00 0.00 93 1013.4
20260906033847 21 97 0.0 0.0 0.00 0.00 0.00 93 1013.4
20260906033359 21 97 0.0 0.0 0.00 0.00 0.00 93 1013.4
20260906033013 21 97 0.0 0.0 0.00 0.00 0.00 93 1012.5
20260906032912 21 97 0.0 0.0 0.00 0.00 0.00 93 1013.5
20260906032343 21 97 0.0 0.0 0.00 0.00 0.00 92 1013.5
20260906031837 21 97 0.0 0.0 0.00 0.00 0.00 93 1013.5
20260906031550 21 97 0.0 0.0 0.00 0.00 0.00 93 1012.3
20260906031349 21 97 0.0 0.0 0.00 0.00 0.00 93 1013.4
20260906030841 21 97 0.0 0.0 0.00 0.00 0.00 93 1013.4
20260906030034 21 97 0.0 0.0 0.00 0.00 0.00 93 1012.3
20260906025343 21 97 0.0 0.0 0.00 0.00 0.00 93 1013.3
20260906024836 21 97 0.0 0.0 0.00 0.00 0.00 93 1013.3
20260906024549 21 97 0.0 0.0 0.00 0.00 0.00 93 1012.2
20260906024348 21 97 0.0 0.0 0.00 0.00 0.00 93 1013.3
20260906023841 21 97 0.0 0.0 0.00 0.00 0.00 93 1013.2
20260906023413 21 97 0.0 0.0 0.00 0.00 0.00 92 1013.2
20260906023050 21 97 0.0 0.0 0.00 0.00 0.00 92 1012.0
20260906022844 21 97 0.0 0.0 0.00 0.00 0.00 92 1013.0
20260906022337 21 97 0.0 0.0 0.00 0.00 0.00 92 1013.0
20260906021850 21 97 0.0 0.0 0.00 0.00 0.00 92 1013.0
20260906021547 21 97 0.0 0.0 0.00 0.00 0.00 92 1011.8
20260906021343 21 97 0.0 0.0 0.00 0.00 0.00 92 1012.9
20260906020840 21 97 0.0 0.0 0.00 0.00 0.00 92 1012.8
20260906020355 22 97 0.0 0.0 0.00 0.00 0.00 92 1012.8
20260906020045 21 97 0.0 0.0 0.00 0.00 0.00 92 1011.7
20260906015844 22 97 0.0 0.0 0.00 0.00 0.00 92 1012.8
20260906015357 22 97 0.0 0.0 0.00 0.00 0.00 92 1012.8
20260906014847 22 97 0.0 0.0 0.00 0.00 0.00 92 1012.7
20260906014548 21 97 0.0 0.0 0.00 0.00 0.00 92 1011.6
20260906014341 22 97 0.0 0.0 0.00 0.00 0.00 92 1012.6
20260906013855 22 97 0.0 0.0 0.00 0.00 0.00 92 1012.6
20260906013406 22 97 0.0 0.0 0.00 0.00 0.00 92 1012.6
20260906013044 22 97 0.0 0.0 0.00 0.00 0.00 92 1011.5
20260906012838 22 97 0.0 0.0 0.00 0.00 0.00 92 1012.5
20260906012351 22 97 0.0 0.0 0.00 0.00 0.00 92 1012.6
20260906011902 22 97 0.0 0.0 0.00 0.00 0.00 92 1012.5
20260906011515 22 97 0.0 0.0 0.00 0.00 0.00 92 1011.3
20260906011414 22 97 0.0 0.0 0.00 0.00 0.00 92 1012.4
20260906010845 22 97 0.0 0.0 0.00 0.00 0.00 92 1012.4
20260906010358 22 97 0.0 0.0 0.00 0.00 0.00 92 1012.3
20260906010013 22 97 0.0 0.0 0.00 0.00 0.00 92 1011.2
20260906005908 22 97 0.0 0.0 0.00 0.00 0.00 92 1012.3
20260906005340 22 97 0.0 0.0 0.00 0.00 0.00 92 1012.2
20260906004854 22 97 0.0 0.0 0.00 0.00 0.00 92 1012.0
20260906004546 22 97 0.0 0.0 0.00 0.00 0.00 92 1010.9
20260906004347 22 97 0.0 0.0 0.00 0.00 0.00 92 1012.0
20260906003840 22 97 0.0 0.0 0.00 0.00 0.00 92 1012.1
20260906003352 22 97 0.0 0.0 0.00 0.00 0.00 92 1012.2
20260906003046 22 97 0.0 0.0 0.00 0.00 0.00 92 1011.0
20260906002845 22 97 0.0 0.0 0.00 0.00 0.00 92 1012.1
20260906002337 22 97 0.0 0.0 0.00 0.00 0.00 91 1011.9
20260906001850 22 97 526.3 526.3 0.00 0.00 0.00 91 1011.7
20260906001543 22 97 0.0 0.0 0.00 0.00 0.00 91 1010.7
20260906001343 22 97 0.0 0.0 0.00 0.00 0.00 91 1011.9
20260906000837 22 97 0.0 0.0 0.00 0.00 0.00 91 1011.9
20260906000350 22 97 0.0 0.0 0.00 0.00 0.00 91 1011.6
20260906000041 22 97 0.0 0.0 0.00 0.00 0.00 91 1010.5
20260905235840 22 97 0.0 0.0 0.00 0.00 0.00 91 1011.6
20260905235336 23 97 0.0 0.0 0.00 0.00 0.00 91 1011.6
20260905234849 23 97 0.0 0.0 0.00 0.00 0.00 91 1011.7
20260905234543 22 97 0.0 0.0 0.00 0.00 0.00 91 1010.6
20260905234342 23 97 0.0 0.0 0.00 0.00 0.00 91 1011.6
20260905233835 23 97 0.0 0.0 0.00 0.00 0.00 90 1011.7
20260905233347 23 97 0.0 0.0 0.00 0.00 0.00 90 1011.7
20260905233041 23 97 0.0 0.0 0.00 0.00 0.00 91 1010.5
20260905232841 23 97 0.0 0.0 0.00 0.00 0.00 91 1011.7
20260905232413 23 97 0.0 0.0 0.00 0.00 0.00 91 1011.7